Simultaneous Nadir Overpasses (SNOs) Predictions

Prediction of SNOs between METOP-B and NOAA-19 Satellite Orbit:

Table of predicted SNOs for the next 14.0 days since TLE Epoch: 2/9/2018
Index Date (METOP-B) Time (METOP-B) Lat,Lon (METOP-B) SZA (METOP-B ) Date (NOAA-19) Time (NOAA-19) Lat,Lon (NOAA-19) SZA (NOAA-19 ) Distance(km) Time Diff (sec)
1 02/18/2018 02:22:01 -78.03, -27.21 90.32 02/18/2018 02:20:52 -78.01, -27.20 90.33 1.33 69
2 02/18/2018 03:12:41 78.03, 140.15 89.68 02/18/2018 03:11:50 78.03, 139.97 89.67 4.21 51
3 02/18/2018 04:03:23 -78.01, -52.64 90.36 02/18/2018 04:02:53 -78.00, -52.65 90.37 0.64 30
4 02/18/2018 04:54:03 78.01, 114.72 89.64 02/18/2018 04:53:50 77.98, 114.75 89.60 3.95 13
5 02/18/2018 05:44:45 -77.99, -78.07 90.40 02/18/2018 05:44:54 -77.99, -78.09 90.40 0.49 9
6 02/18/2018 06:35:25 78.00, 89.30 89.59 02/18/2018 06:35:51 77.97, 89.31 89.57 3.25 26
7 02/18/2018 07:26:07 -77.97,-103.49 90.45 02/18/2018 07:26:55 -77.98,-103.53 90.44 1.14 48
8 02/18/2018 08:16:47 77.98, 63.87 89.55 02/18/2018 08:17:52 77.96, 63.87 89.53 2.56 65




NCC Satellite Simultaneous Nadir Overpasses (SNOs) Prediction Service
